[[{"header":{"parameterUnit":"m.s-1","parameterCategory":2,"la1":30.2991,"la2":30.254,"lo1":-89.0895,"lo2":-89.0444,"dy":0.0017,"dx":0.0017,"nx":28,"ny":28,"refTime":"2025-11-07T03:00:00:Z","depth":"0","parameterNumber":2,"parameterNumberName":"U-component_of_CURRENTS"},"data":[0,0,0,0,0,0,0,0,0,0,0,0,0,0,0,0,0,0,0,0,0,0,0,0,0,0,0,0,0,0,0,0,0,0,0,0,0,0,0,0,0,0,0,0,0,0,0,0,0,0,0,0,0,0,0,0,0,0,-0.2722,-0.2724,0,-0.2878,-0.288,-0.2882,-0.2971,-0.2971,-0.2971,-0.2971,-0.3053,-0.3055,-0.3057,0,0,0,0,0,0,0,0,0,0,0,0,0,-0.2572,-0.2574,-0.2722,-0.2724,-0.2726,-0.2878,-0.288,-0.2883,-0.2971,-0.2971,-0.2971,-0.2971,-0.3053,-0.3055,-0.3058,0,0,0,0,0,0,0,0,0,0,0,0,0,-0.2676,-0.2575,-0.2722,-0.2786,-0.2794,-0.2877,-0.288,-0.2883,-0.2971,-0.2971,-0.2971,-0.2971,-0.3052,-0.3055,-0.3058,-0.3074,0,0,-0.3068,-0.3069,0,0,0,0,0,0,0,0,-0.2669,-0.2681,-0.2775,-0.2782,-0.279,-0.2903,-0.2858,-0.2943,-0.2971,-0.2906,-0.2971,-0.2971,-0.2995,-0.3003,-0.3036,-0.3078,-0.3082,-0.3068,-0.307,-0.3071,-0.3072,0,0,0,0,0,0,0,-0.2662,-0.2675,-0.2786,-0.2777,-0.2786,-0.2832,-0.2846,-0.2875,-0.2948,-0.2912,-0.2918,-0.2932,-0.2999,-0.3033,-0.3038,-0.3083,-0.3068,-0.3071,-0.3072,-0.3074,-0.3161,-0.3161,0,0,0,0,0,0,-0.2635,-0.2668,-0.2781,-0.2791,-0.2726,-0.2834,-0.285,-0.2869,-0.2949,-0.2962,-0.2931,-0.2935,-0.3027,-0.3034,-0.3041,-0.3018,-0.3071,-0.3074,-0.3076,-0.3161,-0.3161,-0.3162,0,0,0,0,0,0,-0.2631,-0.2644,-0.2775,-0.2731,-0.275,-0.2835,-0.2856,-0.2872,-0.2903,-0.2965,-0.2976,-0.2946,-0.3028,-0.3037,-0.3077,-0.3023,-0.3075,-0.3078,-0.316,-0.3161,-0.3161,-0.3,0,0,0,0,0,0,-0.2626,-0.2641,-0.2644,-0.2729,-0.2752,-0.2803,-0.2856,-0.2874,-0.291,-0.2917,-0.2981,-0.299,-0.3029,-0.3072,-0.308,-0.3028,-0.3081,-0.316,-0.316,-0.3161,-0.3005,-0.2995,-0.2987,0,0,0,0,0,-0.262,-0.2624,-0.2643,-0.2657,-0.2753,-0.2802,-0.2817,-0.2881,-0.291,-0.2912,-0.2975,-0.2987,-0.3083,-0.3075,-0.3084,-0.3032,-0.3159,-0.316,-0.3161,-0.3009,-0.2997,-0.2987,0,0,0,0,0,0,-0.2564,-0.2636,-0.2659,-0.2685,-0.2727,-0.2815,-0.2829,-0.2872,-0.2928,-0.2935,-0.2998,-0.301,-0.302,-0.3069,-0.3059,-0.3069,-0.312,-0.3123,-0.3001,-0.2991,-0.2982,-0.2982,-0.3083,0,0,0,0,0,-0.2549,-0.2567,-0.2637,-0.2652,-0.2671,-0.2747,-0.2776,-0.2816,-0.2877,-0.2903,-0.2946,-0.3,-0.3033,-0.3047,-0.3087,-0.3094,-0.3112,-0.3071,-0.3062,-0.3053,-0.3065,-0.3047,-0.3035,-0.3165,-0.3165,-0.3165,0,0,-0.2531,-0.2571,-0.2581,-0.2639,-0.2682,-0.271,-0.2765,-0.2798,-0.2818,-0.2899,-0.293,-0.2965,-0.3033,-0.3039,-0.3046,-0.3068,-0.3022,-0.3055,-0.3046,-0.3064,-0.3046,-0.3033,-0.3021,-0.3166,-0.3165,-0.3165,0,0,-0.2503,-0.2535,-0.2544,-0.2576,-0.2628,-0.2673,-0.2675,-0.2748,-0.2772,-0.2808,-0.2865,-0.2875,-0.2942,-0.2963,-0.2988,-0.296,-0.2975,-0.2971,-0.2914,-0.2893,-0.2881,-0.2871,-0.2841,-0.283,-0.2963,-0.2963,-0.2963,0,-0.2477,-0.2505,-0.2549,-0.2569,-0.2593,-0.265,-0.2665,-0.2698,-0.2771,-0.2784,-0.2798,-0.2873,-0.2902,-0.2913,-0.2902,-0.2928,-0.2932,-0.2933,-0.2874,-0.2865,-0.2857,-0.283,-0.2819,-0.2955,-0.2956,-0.2957,-0.2958,0,-0.2466,-0.2486,-0.249,-0.2534,-0.2559,-0.2575,-0.2626,-0.2642,-0.267,-0.2705,-0.2713,-0.2753,-0.2802,-0.2789,-0.2837,-0.2798,-0.282,-0.2855,-0.2882,-0.2832,-0.2809,-0.28,-0.2944,-0.2947,-0.2949,-0.2951,0,0,-0.2411,-0.2471,-0.2471,-0.2487,-0.2542,-0.2563,-0.2579,-0.2611,-0.2624,-0.2641,-0.2647,-0.2664,-0.2681,-0.2715,-0.2743,-0.2716,-0.263,-0.2758,-0.276,-0.2695,-0.2577,-0.25,-0.2484,-0.2648,-0.2646,-0.2645,-0.2568,0,-0.2387,-0.2409,-0.2449,-0.2463,-0.2479,-0.2529,-0.2543,-0.2574,-0.2597,-0.2609,-0.2613,-0.2632,-0.2654,-0.2661,-0.2633,-0.266,-0.2609,-0.2648,-0.2669,-0.2669,-0.2578,-0.2472,-0.2376,-0.2291,-0.256,-0.2558,-0.2558,0,-0.2359,-0.2382,-0.2391,-0.2436,-0.2447,-0.246,-0.2492,-0.2515,-0.2542,-0.2558,-0.2562,-0.2591,-0.2572,-0.2588,-0.256,-0.2589,-0.2569,-0.2563,-0.2561,-0.2548,-0.2577,-0.2398,-0.2267,-0.2257,-0.2545,-0.2546,-0.2547,0,-0.2293,-0.2338,-0.234,-0.2357,-0.2415,-0.2421,-0.2449,-0.2488,-0.2507,-0.2524,-0.2534,-0.2531,-0.2533,-0.2511,-0.2512,-0.2536,-0.2466,-0.2501,-0.2399,-0.2394,-0.2349,-0.2341,-0.2185,-0.244,-0.244,-0.244,-0.2441,0,-0.2249,-0.2249,-0.2309,-0.231,-0.2316,-0.2372,-0.2379,-0.2412,-0.2449,-0.2458,-0.25,-0.2499,-0.2514,-0.2494,-0.2483,-0.2406,-0.2439,-0.2362,-0.2357,-0.2288,-0.2277,-0.2302,-0.2347,-0.2438,-0.2438,-0.2439,-0.2439,0,-0.2165,-0.2207,-0.2214,-0.2268,-0.2283,-0.2283,-0.2342,-0.2349,-0.2402,-0.2411,-0.2416,-0.2464,-0.2433,-0.2426,-0.2389,-0.2359,-0.2258,-0.2264,-0.2175,-0.2158,-0.2045,-0.2086,-0.1976,-0.1919,-0.2127,-0.2124,-0.2122,0,-0.2118,-0.2114,-0.2166,-0.2169,-0.2188,-0.221,-0.2225,-0.2301,-0.2318,-0.2384,-0.2376,-0.2372,-0.2337,-0.2255,-0.2192,-0.2109,-0.2142,-0.1986,-0.2,-0.1987,-0.2031,-0.2072,-0.2036,-0.1871,-0.1867,-0.1864,-0.1861,0,-0.2023,-0.2044,-0.2054,-0.207,-0.2082,-0.2104,-0.2136,-0.2149,-0.2232,-0.225,-0.2254,-0.2233,-0.2163,-0.2042,-0.195,-0.19,-0.1936,-0.1913,-0.1922,-0.1818,-0.1832,-0.1793,-0.1984,-0.1831,-0.1834,-0.1837,-0.1838,-0.1839,-0.1938,-0.1927,-0.1946,-0.1947,-0.1967,-0.197,-0.1949,-0.2002,-0.2012,-0.2018,-0.2078,-0.2019,-0.195,-0.1797,-0.1737,-0.162,-0.1698,-0.1592,-0.1641,-0.1682,-0.1618,-0.173,-0.1563,-0.1564,-0.1565,-0.1566,-0.1567,0,-0.182,-0.1821,-0.1821,-0.1818,-0.1788,-0.1844,-0.186,-0.1828,-0.1798,-0.1842,-0.1819,-0.1753,-0.1621,-0.1577,-0.1464,-0.139,-0.1369,-0.1372,-0.1419,-0.1394,-0.1493,-0.1471,-0.1249,-0.1249,-0.1249,-0.1249,-0.1249,-0.1249,-0.1755,-0.1711,-0.1716,-0.1629,-0.1625,-0.1555,-0.1537,-0.1526,-0.1539,-0.1491,-0.1484,-0.1479,-0.1466,-0.1527,-0.1402,-0.132,-0.1309,-0.1256,-0.1298,-0.14,-0.1425,-0.145,-0.1436,-0.121,-0.121,-0.1137,-0.1136,-0.1136]},{"header":{"parameterUnit":"m.s-1","parameterCategory":2,"la1":30.2991,"la2":30.254,"lo1":-89.0895,"lo2":-89.0444,"dy":0.0017,"dx":0.0017,"nx":28,"ny":28,"refTime":"2025-11-07T03:00:00:Z","depth":"0","parameterNumber":3,"parameterNumberName":"V-component_of_CURRENTS"},"data":[0,0,0,0,0,0,0,0,0,0,0,0,0,0,0,0,0,0,0,0,0,0,0,0,0,0,0,0,0,0,0,0,0,0,0,0,0,0,0,0,0,0,0,0,0,0,0,0,0,0,0,0,0,0,0,0,0,0,-0.0327,-0.0325,0,-0.0166,-0.0164,-0.0162,-0.0038,-0.0037,-0.0037,-0.0036,0.0202,0.0207,0.0213,0,0,0,0,0,0,0,0,0,0,0,0,0,-0.0421,-0.042,-0.0327,-0.0325,-0.0324,-0.0167,-0.0164,-0.0161,-0.0038,-0.0037,-0.0037,-0.0036,0.02,0.0207,0.0214,0,0,0,0,0,0,0,0,0,0,0,0,0,-0.0328,-0.042,-0.0327,-0.0247,-0.0239,-0.0167,-0.0164,-0.0161,-0.0038,-0.0037,-0.0036,-0.0035,0.0198,0.0206,0.0215,0.0245,0,0,0.024,0.0244,0,0,0,0,0,0,0,0,-0.0334,-0.0324,-0.026,-0.0252,-0.0243,-0.0125,-0.011,-0.0023,-0.0039,-0.0109,-0.0036,-0.0035,0.0096,0.0113,0.0146,0.0256,0.0267,0.0241,0.0246,0.025,0.0252,0,0,0,0,0,0,0,-0.034,-0.033,-0.0258,-0.0259,-0.0248,-0.0183,-0.0169,-0.0092,-0.001,-0.0103,-0.0095,-0.0085,0.0102,0.0138,0.0153,0.027,0.0241,0.0249,0.0254,0.0257,0.0428,0.0427,0,0,0,0,0,0,-0.0377,-0.0337,-0.0264,-0.0254,-0.0292,-0.0183,-0.0167,-0.016,-0.0012,0.001,-0.0086,-0.008,0.0123,0.0143,0.0162,0.0189,0.025,0.0258,0.0263,0.0428,0.0427,0.0427,0,0,0,0,0,0,-0.0379,-0.0372,-0.027,-0.0295,-0.0278,-0.0184,-0.0176,-0.0158,-0.0123,-0.0001,0.0024,-0.0072,0.0124,0.015,0.0222,0.02,0.0262,0.0269,0.0429,0.0428,0.0427,0.0255,0,0,0,0,0,0,-0.0383,-0.0374,-0.0378,-0.0298,-0.0278,-0.0242,-0.0177,-0.0156,-0.0121,-0.0111,0.002,0.0043,0.0127,0.0208,0.023,0.0213,0.0276,0.0429,0.0428,0.0427,0.0262,0.0249,0.0238,0,0,0,0,0,-0.0387,-0.0397,-0.038,-0.0371,-0.0289,-0.0243,-0.0227,-0.0152,-0.0122,-0.0115,-0.0028,0.0039,0.0217,0.0215,0.024,0.0225,0.043,0.0429,0.0427,0.0267,0.0251,0.0238,0,0,0,0,0,0,-0.0432,-0.0384,-0.0363,-0.0356,-0.0314,-0.0224,-0.0209,-0.0166,-0.0092,-0.008,0.0035,0.0064,0.0115,0.0196,0.019,0.0272,0.0334,0.0337,0.0203,0.0189,0.0177,0.0177,0.0283,0,0,0,0,0,-0.0452,-0.045,-0.0393,-0.0389,-0.0374,-0.0298,-0.027,-0.0225,-0.0153,-0.0118,-0.0033,0.006,0.0131,0.0179,0.0255,0.0304,0.0373,0.0312,0.0299,0.0289,0.0307,0.0364,0.0358,0.0423,0.0423,0.0423,0,0,-0.0467,-0.0443,-0.0439,-0.04,-0.0357,-0.034,-0.0277,-0.0247,-0.0226,-0.0105,-0.0051,0.0018,0.0132,0.0181,0.0212,0.0248,0.0303,0.0287,0.0276,0.0302,0.0362,0.0356,0.035,0.0422,0.0422,0.0422,0,0,-0.05,-0.048,-0.049,-0.0464,-0.0422,-0.0377,-0.038,-0.0307,-0.0268,-0.0217,-0.0134,-0.0079,0.0041,0.011,0.0163,0.0134,0.0229,0.0154,0.0104,0.0156,0.0151,0.0148,0.0203,0.0206,0.0156,0.0155,0.0155,0,-0.0521,-0.0524,-0.0485,-0.0486,-0.0469,-0.0405,-0.0407,-0.0362,-0.0275,-0.0246,-0.022,-0.0068,0.001,0.0078,0.0065,0.0106,0.0156,0.014,0.0138,0.0136,0.0136,0.0193,0.0199,0.0147,0.0148,0.0149,0.015,0,-0.0556,-0.0558,-0.0563,-0.0547,-0.0526,-0.0519,-0.0465,-0.044,-0.0395,-0.034,-0.0277,-0.0179,-0.008,-0.0067,-0.0004,0.0028,0.0069,0.0102,0.0165,0.0118,0.0182,0.0191,0.0135,0.0138,0.014,0.0142,0,0,-0.0594,-0.0591,-0.0591,-0.0596,-0.0559,-0.0545,-0.0527,-0.0483,-0.046,-0.0395,-0.0354,-0.0264,-0.0211,-0.0147,-0.0078,-0.0033,-0.0018,0.0026,0.0032,0.0063,0.0101,0.0144,0.0159,0.0007,0.0008,0.0009,0.0138,0,-0.063,-0.066,-0.064,-0.0656,-0.0664,-0.0613,-0.0599,-0.0552,-0.0495,-0.0442,-0.0357,-0.0291,-0.0241,-0.0203,-0.0156,-0.0038,0.0002,-0.0055,0.016,0.0167,0.0196,0.017,0.0208,0.0328,0.0147,0.0148,0.0149,0,-0.0666,-0.0682,-0.0714,-0.0713,-0.071,-0.0708,-0.067,-0.0646,-0.0562,-0.0516,-0.0443,-0.0362,-0.0276,-0.0239,-0.0073,-0.0112,-0.0018,0.0061,0.0069,0.0186,0.0227,0.0354,0.0352,0.049,0.0164,0.0163,0.0162,0,-0.0711,-0.0728,-0.076,-0.0759,-0.0748,-0.0749,-0.0734,-0.0669,-0.0643,-0.0557,-0.0521,-0.0406,-0.0332,-0.0215,-0.0045,-0.0058,0.0139,0.0145,0.0271,0.0276,0.0395,0.0408,0.0545,0.0249,0.0249,0.0249,0.0248,0,-0.0756,-0.0777,-0.0787,-0.0804,-0.0832,-0.0801,-0.0801,-0.0765,-0.0701,-0.0661,-0.0562,-0.0494,-0.0323,-0.0185,-0.0054,0.0148,0.0138,0.0273,0.0314,0.0334,0.0339,0.0538,0.0589,0.0254,0.0253,0.0252,0.0251,0,-0.0798,-0.0806,-0.0843,-0.0853,-0.0858,-0.0876,-0.086,-0.0848,-0.0784,-0.0726,-0.0703,-0.0544,-0.0357,-0.018,0.0042,0.0153,0.0425,0.0397,0.0409,0.0449,0.0674,0.0714,0.0931,0.1018,0.055,0.0552,0.0553,0,-0.0822,-0.0849,-0.0888,-0.0914,-0.0923,-0.0941,-0.0947,-0.0899,-0.0877,-0.0745,-0.0718,-0.0529,-0.0373,-0.0037,0.0191,0.0434,0.0533,0.06,0.0578,0.0704,0.0779,0.0806,0.0865,0.0664,0.0667,0.0669,0.067,0,-0.0864,-0.088,-0.0912,-0.0974,-0.1,-0.1022,-0.1023,-0.1016,-0.0935,-0.0859,-0.0711,-0.0573,-0.0241,0.0065,0.0371,0.0516,0.0708,0.0646,0.0784,0.0892,0.0927,0.1024,0.0559,0.0688,0.0686,0.0685,0.0684,0.0683,-0.0887,-0.0926,-0.0972,-0.1026,-0.1061,-0.1083,-0.1083,-0.1048,-0.0988,-0.0828,-0.0706,-0.044,-0.0042,0.0404,0.0567,0.0912,0.0871,0.1013,0.1054,0.1073,0.1149,0.0717,0.0881,0.088,0.088,0.0879,0.0879,0,-0.0908,-0.0955,-0.1017,-0.1075,-0.1114,-0.1119,-0.1113,-0.106,-0.0965,-0.0776,-0.0594,-0.0104,0.0294,0.0658,0.1114,0.1305,0.1345,0.1402,0.1456,0.1499,0.1138,0.1134,0.1351,0.1351,0.135,0.135,0.135,0.135,-0.0921,-0.0984,-0.1022,-0.1096,-0.1133,-0.1143,-0.1128,-0.1003,-0.0852,-0.0487,-0.0179,0.0054,0.0537,0.1209,0.1632,0.1678,0.1842,0.1834,0.1917,0.1666,0.1632,0.16,0.161,0.1923,0.1924,0.2274,0.2277,0.228]}],[{"header":{"parameterUnit":"m.s-1","parameterCategory":2,"la1":30.2991,"la2":30.254,"lo1":-89.0895,"lo2":-89.0444,"dy":0.0017,"dx":0.0017,"nx":28,"ny":28,"refTime":"2025-11-07T03:00:00:Z","depth":"2","parameterNumber":2,"parameterNumberName":"U-component_of_CURRENTS"},"data":[0,0,0,0,0,0,0,0,0,0,0,0,0,0,0,0,0,0,0,0,0,0,0,0,0,0,0,0,0,0,0,0,0,0,0,0,0,0,0,0,0,0,0,0,0,0,0,0,0,0,0,0,0,0,0,0,0,0,-0.2318,-0.2318,0,-0.2376,-0.2377,-0.2377,-0.2366,-0.2365,-0.2365,-0.2364,-0.2352,-0.2353,-0.2353,0,0,0,0,0,0,0,0,0,0,0,0,0,-0.2221,-0.2222,-0.2317,-0.2318,-0.2319,-0.2376,-0.2377,-0.2377,-0.2366,-0.2365,-0.2364,-0.2363,-0.2352,-0.2353,-0.2353,0,0,0,0,0,0,0,0,0,0,0,0,0,-0.2267,-0.2223,-0.2317,-0.2323,-0.2324,-0.2376,-0.2377,-0.2377,-0.2367,-0.2365,-0.2364,-0.2363,-0.2352,-0.2353,-0.2353,-0.2382,0,0,-0.2355,-0.2356,0,0,0,0,0,0,0,0,-0.2264,-0.227,-0.2321,-0.2322,-0.2324,-0.2365,-0.2339,-0.2376,-0.2367,-0.2348,-0.2364,-0.2362,-0.2353,-0.2353,-0.2364,-0.2382,-0.2381,-0.2356,-0.2356,-0.2356,-0.2356,0,0,0,0,0,0,0,-0.2261,-0.2268,-0.2338,-0.2322,-0.2324,-0.2331,-0.2335,-0.2346,-0.2353,-0.2349,-0.2349,-0.236,-0.2352,-0.2364,-0.2364,-0.2381,-0.2356,-0.2356,-0.2357,-0.2357,-0.2422,-0.2424,0,0,0,0,0,0,-0.2259,-0.2265,-0.2336,-0.234,-0.2293,-0.2334,-0.2339,-0.2351,-0.2355,-0.2355,-0.2361,-0.236,-0.2363,-0.2363,-0.2363,-0.2366,-0.2356,-0.2357,-0.2357,-0.2421,-0.2423,-0.2424,0,0,0,0,0,0,-0.2257,-0.2265,-0.2334,-0.2305,-0.2315,-0.2337,-0.235,-0.2353,-0.2363,-0.2365,-0.2363,-0.2369,-0.2362,-0.2362,-0.2378,-0.2366,-0.2357,-0.2358,-0.242,-0.2422,-0.2423,-0.2391,0,0,0,0,0,0,-0.2254,-0.2264,-0.2268,-0.2306,-0.2317,-0.2353,-0.2352,-0.2355,-0.2373,-0.2371,-0.2371,-0.2369,-0.2361,-0.2377,-0.2379,-0.2367,-0.2358,-0.2418,-0.242,-0.2423,-0.239,-0.2391,-0.2392,0,0,0,0,0,-0.225,-0.2255,-0.2268,-0.2277,-0.2323,-0.2353,-0.2359,-0.2369,-0.2374,-0.2374,-0.2387,-0.2369,-0.2394,-0.2379,-0.2381,-0.2368,-0.2417,-0.242,-0.2423,-0.239,-0.2391,-0.2392,0,0,0,0,0,0,-0.221,-0.2256,-0.227,-0.2288,-0.2316,-0.2352,-0.2355,-0.2375,-0.2388,-0.2385,-0.2387,-0.2387,-0.2396,-0.2402,-0.2386,-0.2401,-0.2402,-0.2406,-0.2377,-0.2378,-0.2379,-0.2365,-0.2359,0,0,0,0,0,-0.2208,-0.2221,-0.2268,-0.2279,-0.2294,-0.233,-0.2344,-0.2358,-0.2379,-0.2384,-0.2391,-0.2402,-0.2413,-0.241,-0.2423,-0.2431,-0.242,-0.2429,-0.243,-0.243,-0.2424,-0.2407,-0.2404,-0.2434,-0.2434,-0.2434,0,0,-0.2195,-0.2222,-0.2229,-0.2272,-0.2293,-0.2315,-0.2334,-0.2355,-0.2368,-0.2381,-0.2394,-0.2408,-0.2421,-0.2427,-0.2431,-0.2425,-0.2417,-0.2434,-0.2434,-0.2427,-0.241,-0.2406,-0.2403,-0.2436,-0.2436,-0.2435,0,0,-0.2176,-0.2202,-0.2209,-0.2236,-0.2275,-0.23,-0.2309,-0.2352,-0.236,-0.2387,-0.2398,-0.2407,-0.2431,-0.2428,-0.2432,-0.2453,-0.2429,-0.2464,-0.2444,-0.2427,-0.2423,-0.242,-0.2394,-0.2389,-0.2456,-0.2456,-0.2456,0,-0.2158,-0.218,-0.2214,-0.2232,-0.2251,-0.2294,-0.2309,-0.233,-0.2371,-0.238,-0.2383,-0.242,-0.2425,-0.2428,-0.2434,-0.2449,-0.2439,-0.2428,-0.2424,-0.242,-0.2417,-0.2392,-0.2386,-0.2455,-0.2455,-0.2455,-0.2455,0,-0.2151,-0.217,-0.2176,-0.2214,-0.2238,-0.2256,-0.2299,-0.2318,-0.234,-0.2362,-0.2379,-0.2394,-0.241,-0.2415,-0.2428,-0.2417,-0.2416,-0.2427,-0.2407,-0.2411,-0.2385,-0.238,-0.2453,-0.2453,-0.2454,-0.2454,0,0,-0.2105,-0.216,-0.2162,-0.2179,-0.2231,-0.225,-0.2274,-0.2306,-0.2319,-0.2344,-0.2352,-0.237,-0.2381,-0.239,-0.2403,-0.2387,-0.2354,-0.2397,-0.2397,-0.2348,-0.2309,-0.2233,-0.2219,-0.2361,-0.236,-0.236,-0.2296,0,-0.2088,-0.2112,-0.2148,-0.2169,-0.2187,-0.2234,-0.2254,-0.2287,-0.2313,-0.233,-0.234,-0.2355,-0.2371,-0.2377,-0.2363,-0.2371,-0.234,-0.237,-0.2333,-0.2332,-0.2244,-0.221,-0.2061,-0.1985,-0.229,-0.2289,-0.2288,0,-0.2066,-0.2089,-0.2106,-0.2154,-0.2165,-0.2183,-0.2221,-0.2247,-0.2282,-0.2301,-0.2313,-0.2334,-0.2331,-0.2339,-0.2317,-0.2338,-0.2316,-0.2308,-0.2305,-0.2239,-0.2244,-0.2035,-0.1963,-0.2279,-0.228,-0.2281,-0.2281,0,-0.201,-0.2057,-0.2066,-0.2084,-0.2144,-0.2155,-0.2186,-0.223,-0.2251,-0.2279,-0.2294,-0.2301,-0.2304,-0.2286,-0.228,-0.2298,-0.2241,-0.2264,-0.2165,-0.216,-0.2026,-0.201,-0.2218,-0.2218,-0.2218,-0.2218,-0.2218,0,-0.1975,-0.1981,-0.204,-0.2046,-0.206,-0.2117,-0.2133,-0.2168,-0.2211,-0.2224,-0.227,-0.2272,-0.2292,-0.2274,-0.2261,-0.2187,-0.2221,-0.2142,-0.213,-0.2012,-0.1997,-0.2257,-0.2263,-0.2216,-0.2216,-0.2217,-0.2217,0,-0.1903,-0.1945,-0.1959,-0.2017,-0.2032,-0.204,-0.2102,-0.2113,-0.217,-0.2186,-0.2195,-0.2244,-0.2216,-0.2214,-0.218,-0.215,-0.2098,-0.2058,-0.1915,-0.1886,-0.2032,-0.2037,-0.1938,-0.1934,-0.1931,-0.1929,-0.1927,0,-0.1864,-0.1865,-0.192,-0.1927,-0.1948,-0.1977,-0.1994,-0.2072,-0.209,-0.2158,-0.2152,-0.2155,-0.212,-0.2047,-0.1985,-0.1908,-0.1997,-0.174,-0.174,-0.2,-0.2,-0.2009,-0.2018,-0.1553,-0.1548,-0.1545,-0.1541,0,-0.1784,-0.1806,-0.182,-0.1838,-0.1855,-0.1879,-0.1912,-0.1925,-0.2008,-0.2024,-0.2026,-0.2004,-0.1943,-0.1796,-0.1715,-0.1662,-0.1744,-0.1654,-0.1943,-0.1654,-0.1634,-0.1635,-0.1657,-0.1505,-0.1509,-0.1512,-0.1513,-0.1515,-0.1711,-0.1704,-0.1724,-0.1728,-0.1751,-0.1752,-0.1727,-0.1773,-0.1778,-0.1769,-0.1838,-0.175,-0.173,-0.1513,-0.1427,-0.1366,-0.149,-0.144,-0.1454,-0.1472,-0.1444,-0.1421,-0.1247,-0.1249,-0.1251,-0.1252,-0.1254,0,-0.1609,-0.161,-0.1611,-0.1609,-0.1582,-0.1636,-0.1643,-0.1589,-0.1541,-0.156,-0.1527,-0.1351,-0.1251,-0.1237,-0.108,-0.105,-0.1055,-0.1014,-0.103,-0.1065,-0.1097,-0.1053,-0.075,-0.0749,-0.0747,-0.0746,0,0,-0.1552,-0.1512,-0.1513,-0.1431,-0.1427,-0.1346,-0.1318,-0.1257,-0.1231,-0.1141,-0.1096,-0.1175,-0.1193,-0.0975,-0.092,-0.0808,-0.0928,-0.0764,-0.1166,-0.1218,-0.1248,-0.1336,-0.1307,0,0,0,0,0]},{"header":{"parameterUnit":"m.s-1","parameterCategory":2,"la1":30.2991,"la2":30.254,"lo1":-89.0895,"lo2":-89.0444,"dy":0.0017,"dx":0.0017,"nx":28,"ny":28,"refTime":"2025-11-07T03:00:00:Z","depth":"2","parameterNumber":3,"parameterNumberName":"V-component_of_CURRENTS"},"data":[0,0,0,0,0,0,0,0,0,0,0,0,0,0,0,0,0,0,0,0,0,0,0,0,0,0,0,0,0,0,0,0,0,0,0,0,0,0,0,0,0,0,0,0,0,0,0,0,0,0,0,0,0,0,0,0,0,0,-0.0312,-0.0311,0,-0.0198,-0.0196,-0.0195,-0.0115,-0.0115,-0.0114,-0.0114,0.0022,0.0025,0.0028,0,0,0,0,0,0,0,0,0,0,0,0,0,-0.0384,-0.0384,-0.0312,-0.0311,-0.031,-0.0198,-0.0196,-0.0194,-0.0115,-0.0115,-0.0114,-0.0114,0.002,0.0024,0.0028,0,0,0,0,0,0,0,0,0,0,0,0,0,-0.0318,-0.0384,-0.0312,-0.0258,-0.0252,-0.0198,-0.0196,-0.0194,-0.0115,-0.0115,-0.0114,-0.0113,0.0019,0.0024,0.0029,0.0046,0,0,0.0043,0.0045,0,0,0,0,0,0,0,0,-0.0322,-0.0315,-0.0267,-0.0262,-0.0255,-0.0172,-0.0172,-0.0113,-0.0115,-0.0165,-0.0114,-0.0113,-0.0043,-0.0033,-0.001,0.0052,0.0058,0.0044,0.0047,0.0049,0.005,0,0,0,0,0,0,0,-0.0327,-0.0319,-0.0265,-0.0266,-0.0259,-0.0213,-0.0203,-0.016,-0.0107,-0.0161,-0.0155,-0.0146,-0.0039,-0.0015,-0.0007,0.006,0.0044,0.0048,0.0051,0.0053,0.0165,0.0165,0,0,0,0,0,0,-0.035,-0.0324,-0.0268,-0.0262,-0.029,-0.0213,-0.0202,-0.0198,-0.0108,-0.0094,-0.0147,-0.0143,-0.0024,-0.0012,-0.0001,0.0027,0.0049,0.0053,0.0056,0.0165,0.0165,0.0165,0,0,0,0,0,0,-0.0352,-0.0346,-0.0273,-0.0291,-0.0279,-0.0213,-0.0208,-0.0196,-0.0173,-0.0098,-0.0083,-0.0137,-0.0023,-0.0008,0.0039,0.0033,0.0055,0.006,0.0165,0.0165,0.0165,0.0082,0,0,0,0,0,0,-0.0355,-0.0348,-0.0353,-0.0293,-0.0279,-0.0251,-0.0209,-0.0194,-0.0169,-0.0162,-0.0085,-0.0071,-0.0021,0.0031,0.0044,0.004,0.0064,0.0165,0.0165,0.0165,0.0084,0.0079,0.0074,0,0,0,0,0,-0.0358,-0.0368,-0.0354,-0.0347,-0.0288,-0.0252,-0.024,-0.0189,-0.0169,-0.0165,-0.0107,-0.0074,0.0041,0.0035,0.005,0.0047,0.0165,0.0165,0.0165,0.0086,0.008,0.0074,0,0,0,0,0,0,-0.0398,-0.036,-0.0342,-0.034,-0.0305,-0.0239,-0.023,-0.0198,-0.0149,-0.0143,-0.0071,-0.0054,-0.0015,0.0028,0.0019,0.0081,0.0108,0.0111,0.0043,0.0038,0.0033,0.0022,0.0068,0,0,0,0,0,-0.0413,-0.0413,-0.0366,-0.0364,-0.0352,-0.0295,-0.0274,-0.0242,-0.0191,-0.0168,-0.0113,-0.0054,-0.0003,0.0025,0.0075,0.0107,0.015,0.0116,0.0111,0.0106,0.0108,0.0164,0.0164,0.0166,0.0166,0.0166,0,0,-0.0427,-0.0407,-0.0405,-0.0373,-0.0341,-0.0327,-0.028,-0.0258,-0.024,-0.0162,-0.0124,-0.0071,0.0002,0.0041,0.0061,0.0076,0.0127,0.0106,0.0102,0.0107,0.0164,0.0164,0.0164,0.0166,0.0166,0.0166,0,0,-0.0457,-0.0441,-0.045,-0.0427,-0.0393,-0.0357,-0.0358,-0.03,-0.027,-0.0231,-0.0169,-0.012,-0.0046,0.0009,0.0046,0.0043,0.0096,0.0055,0.0024,0.0077,0.0077,0.0078,0.0121,0.0126,0.0054,0.0054,0.0054,0,-0.0475,-0.0478,-0.0446,-0.0447,-0.0432,-0.0378,-0.0379,-0.0342,-0.0275,-0.025,-0.0232,-0.0113,-0.0058,0.0003,0.0004,0.0031,0.0067,0.0036,0.0069,0.0071,0.0073,0.0117,0.0124,0.005,0.0051,0.0051,0.0051,0,-0.0506,-0.0508,-0.0512,-0.0497,-0.0479,-0.0472,-0.0423,-0.0399,-0.0362,-0.0314,-0.0253,-0.0175,-0.0101,-0.0081,-0.0038,0.0006,0.0027,0.0051,0.0078,0.0067,0.0115,0.0123,0.0044,0.0046,0.0047,0.0048,0,0,-0.0543,-0.0537,-0.0537,-0.054,-0.0506,-0.0493,-0.0473,-0.043,-0.041,-0.0347,-0.0309,-0.0224,-0.0177,-0.0132,-0.0072,-0.0026,0.0014,0.0012,0.0016,0.0043,0.0125,0.0147,0.0158,0.0041,0.0042,0.0043,0.0147,0,-0.0574,-0.0598,-0.0578,-0.059,-0.0596,-0.0549,-0.0532,-0.0488,-0.0436,-0.0386,-0.0303,-0.0244,-0.0197,-0.0163,-0.0111,-0.001,0.0034,-0.0017,0.0142,0.0147,0.0159,0.0169,0.0144,0.0236,0.0156,0.0157,0.0159,0,-0.0605,-0.0617,-0.0644,-0.0638,-0.0636,-0.0633,-0.0596,-0.0572,-0.0491,-0.045,-0.0378,-0.0305,-0.0216,-0.0183,-0.0028,-0.0064,0.002,0.0091,0.0098,0.0156,0.0185,0.0239,0.0255,0.0174,0.0172,0.0171,0.017,0,-0.0647,-0.0658,-0.0684,-0.0682,-0.0669,-0.0668,-0.0654,-0.0592,-0.0568,-0.0485,-0.0454,-0.0339,-0.0273,-0.0159,-0.001,-0.0017,0.0157,0.0169,0.0268,0.027,0.0301,0.0304,0.0271,0.0271,0.027,0.027,0.027,0,-0.0685,-0.0703,-0.071,-0.0724,-0.0748,-0.0717,-0.0718,-0.0683,-0.0625,-0.0592,-0.0491,-0.0432,-0.0264,-0.014,-0.0019,0.0155,0.0155,0.0269,0.0303,0.0271,0.027,0.026,0.0257,0.0274,0.0273,0.0272,0.0272,0,-0.0725,-0.073,-0.0761,-0.0768,-0.0772,-0.0789,-0.0776,-0.0767,-0.0708,-0.0661,-0.0637,-0.049,-0.0324,-0.0156,0.0049,0.015,0.0306,0.0365,0.031,0.0336,0.0383,0.0375,0.0484,0.0485,0.0487,0.0488,0.0489,0,-0.0748,-0.0771,-0.0804,-0.0829,-0.0837,-0.0854,-0.0862,-0.0817,-0.08,-0.0689,-0.0667,-0.0499,-0.0364,-0.0063,0.0142,0.036,0.036,0.0456,0.0441,0.0384,0.0407,0.0396,0.0387,0.0448,0.0448,0.0449,0.0449,0,-0.0787,-0.0801,-0.0829,-0.0888,-0.0915,-0.0936,-0.094,-0.0939,-0.0869,-0.0805,-0.0684,-0.0566,-0.0277,-0.0029,0.0243,0.0367,0.0417,0.0473,0.045,0.0391,0.0358,0.0377,0.0367,0.0454,0.0453,0.0453,0.0453,0.0452,-0.0812,-0.0848,-0.089,-0.0941,-0.0976,-0.1003,-0.1008,-0.0982,-0.0937,-0.0816,-0.0704,-0.0496,-0.0273,0.0129,0.0316,0.049,0.0488,0.0533,0.0528,0.0524,0.0495,0.0465,0.0576,0.0576,0.0576,0.0576,0.0577,0,-0.0838,-0.088,-0.0937,-0.0994,-0.1035,-0.104,-0.1044,-0.1014,-0.0944,-0.0803,-0.0654,-0.0389,-0.0109,0.0122,0.04,0.0559,0.0542,0.0583,0.0526,0.0521,0.0517,0.0484,0.0565,0.0565,0.0565,0.0566,0,0,-0.0854,-0.0913,-0.0947,-0.1023,-0.1061,-0.1084,-0.1078,-0.1006,-0.0898,-0.0747,-0.0583,-0.0367,-0.009,0.0102,0.03,0.0442,0.044,0.0456,0.045,0.0355,0.0348,0.0475,0.0418,0,0,0,0,0]}],[{"header":{"parameterUnit":"m.s-1","parameterCategory":2,"la1":30.2991,"la2":30.254,"lo1":-89.0895,"lo2":-89.0444,"dy":0.0017,"dx":0.0017,"nx":28,"ny":28,"refTime":"2025-11-07T03:00:00:Z","depth":"4","parameterNumber":2,"parameterNumberName":"U-component_of_CURRENTS"},"data":[0,0,0,0,0,0,0,0,0,0,0,0,0,0,0,0,0,0,0,0,0,0,0,0,0,0,0,0,0,0,0,0,0,0,0,0,0,0,0,0,0,0,0,0,0,0,0,0,0,0,0,0,0,0,0,0,0,0,-0.1614,-0.1615,0,-0.1664,-0.1664,-0.1664,-0.1668,-0.1667,-0.1667,-0.1667,-0.1674,-0.1674,-0.1675,0,0,0,0,0,0,0,0,0,0,0,0,0,-0.1523,-0.1524,-0.1614,-0.1615,-0.1616,-0.1664,-0.1664,-0.1665,-0.1668,-0.1667,-0.1667,-0.1667,-0.1674,-0.1674,-0.1675,0,0,0,0,0,0,0,0,0,0,0,0,0,-0.1563,-0.1525,-0.1614,-0.1627,-0.1628,-0.1664,-0.1664,-0.1665,-0.1668,-0.1667,-0.1667,-0.1667,-0.1674,-0.1674,-0.1675,-0.1684,0,0,-0.1676,-0.1677,0,0,0,0,0,0,0,0,-0.156,-0.1566,-0.1624,-0.1626,-0.1628,-0.1663,-0.1635,-0.167,-0.1668,-0.1649,-0.1667,-0.1667,-0.1669,-0.167,-0.1675,-0.1684,-0.1685,-0.1676,-0.1677,-0.1677,-0.1677,0,0,0,0,0,0,0,-0.1558,-0.1564,-0.163,-0.1625,-0.1628,-0.163,-0.1635,-0.1641,-0.1656,-0.165,-0.1652,-0.1664,-0.1669,-0.1674,-0.1675,-0.1685,-0.1676,-0.1677,-0.1677,-0.1677,-0.1752,-0.1754,0,0,0,0,0,0,-0.156,-0.1561,-0.1629,-0.1632,-0.1597,-0.1632,-0.1637,-0.1649,-0.1657,-0.1659,-0.1664,-0.1664,-0.1674,-0.1674,-0.1675,-0.1731,-0.1677,-0.1678,-0.1678,-0.175,-0.1752,-0.1754,0,0,0,0,0,0,-0.1558,-0.1566,-0.1627,-0.1601,-0.1609,-0.1635,-0.1647,-0.165,-0.1681,-0.1668,-0.1669,-0.1695,-0.1673,-0.1674,-0.1707,-0.173,-0.1678,-0.1678,-0.1748,-0.1751,-0.1753,-0.1815,0,0,0,0,0,0,-0.1555,-0.1564,-0.1583,-0.1601,-0.1611,-0.1657,-0.1648,-0.1651,-0.1689,-0.169,-0.1695,-0.1694,-0.1673,-0.1707,-0.1708,-0.173,-0.1679,-0.1746,-0.175,-0.1753,-0.1811,-0.1819,-0.1826,0,0,0,0,0,-0.1551,-0.1566,-0.1583,-0.1592,-0.1632,-0.1659,-0.1664,-0.1677,-0.1691,-0.1705,-0.1719,-0.1695,-0.1727,-0.1709,-0.171,-0.1732,-0.1745,-0.1749,-0.1752,-0.1807,-0.1818,-0.1826,0,0,0,0,0,0,-0.1532,-0.1569,-0.1587,-0.1613,-0.1643,-0.1661,-0.1679,-0.1699,-0.1723,-0.1731,-0.172,-0.1721,-0.1759,-0.1743,-0.1724,-0.1764,-0.173,-0.1735,-0.1772,-0.1782,-0.1789,-0.1769,-0.1679,0,0,0,0,0,-0.154,-0.1563,-0.1598,-0.1622,-0.164,-0.1671,-0.169,-0.1705,-0.1726,-0.1738,-0.175,-0.176,-0.1772,-0.1776,-0.1784,-0.1807,-0.1778,-0.1822,-0.183,-0.1836,-0.1822,-0.1814,-0.1819,-0.1766,-0.1766,-0.1766,0,0,-0.1542,-0.1565,-0.158,-0.1621,-0.1645,-0.1671,-0.168,-0.1717,-0.1742,-0.1735,-0.1779,-0.1795,-0.1788,-0.1815,-0.1829,-0.1805,-0.1839,-0.1841,-0.1847,-0.1828,-0.1818,-0.1823,-0.1827,-0.1769,-0.1768,-0.1768,0,0,-0.1542,-0.1577,-0.1594,-0.1623,-0.167,-0.1689,-0.171,-0.1752,-0.1775,-0.1822,-0.1825,-0.1856,-0.1879,-0.1874,-0.1873,-0.193,-0.1888,-0.1942,-0.1954,-0.1948,-0.1951,-0.1954,-0.1929,-0.1929,-0.1935,-0.1936,-0.1936,0,-0.1545,-0.1571,-0.1604,-0.1628,-0.1655,-0.1702,-0.1728,-0.1757,-0.1809,-0.1829,-0.1841,-0.1892,-0.1898,-0.1914,-0.1937,-0.1945,-0.1929,-0.1918,-0.1956,-0.1958,-0.1959,-0.1933,-0.1932,-0.1939,-0.1939,-0.1938,-0.1938,0,-0.155,-0.1585,-0.1598,-0.1644,-0.1677,-0.1709,-0.1756,-0.1798,-0.1841,-0.1867,-0.1919,-0.1937,-0.1956,-0.1976,-0.1974,-0.1995,-0.1977,-0.1974,-0.1926,-0.1968,-0.1938,-0.1936,-0.1944,-0.1943,-0.1942,-0.1941,0,0,-0.1521,-0.1589,-0.1598,-0.1626,-0.1692,-0.1716,-0.1766,-0.1815,-0.1847,-0.1903,-0.1934,-0.1978,-0.1997,-0.1997,-0.2009,-0.2008,-0.2021,-0.2,-0.1998,-0.1965,-0.1996,-0.1868,-0.1853,-0.2028,-0.2028,-0.2028,-0.1972,0,-0.1519,-0.1562,-0.16,-0.165,-0.1677,-0.1735,-0.1775,-0.1827,-0.1875,-0.1917,-0.1947,-0.1984,-0.2001,-0.2021,-0.2026,-0.203,-0.2017,-0.2035,-0.1968,-0.1965,-0.1839,-0.1847,-0.2028,-0.197,-0.1969,-0.1969,-0.1968,0,-0.1506,-0.154,-0.1586,-0.1656,-0.1674,-0.1713,-0.1783,-0.1825,-0.1887,-0.1923,-0.1961,-0.1988,-0.2014,-0.202,-0.202,-0.2034,-0.2014,-0.2006,-0.2004,-0.1854,-0.1833,-0.1919,-0.1964,-0.1964,-0.1964,-0.1965,-0.1965,0,-0.1456,-0.1528,-0.1566,-0.1592,-0.1675,-0.1711,-0.1759,-0.1828,-0.1863,-0.1925,-0.1952,-0.1987,-0.2007,-0.2001,-0.1998,-0.2014,-0.1975,-0.199,-0.1847,-0.1838,-0.1942,-0.194,-0.1962,-0.1962,-0.1962,-0.1963,-0.1963,0,-0.1423,-0.1457,-0.1552,-0.1572,-0.162,-0.1689,-0.1742,-0.1793,-0.1858,-0.1882,-0.1951,-0.1958,-0.2006,-0.1997,-0.1986,-0.1897,-0.1961,-0.1831,-0.1809,-0.1972,-0.1974,-0.1941,-0.1939,-0.1961,-0.1961,-0.1961,-0.1962,0,-0.1355,-0.1419,-0.1469,-0.1565,-0.1597,-0.1632,-0.1728,-0.1754,-0.1832,-0.1862,-0.1881,-0.194,-0.192,-0.1933,-0.1913,-0.1861,-0.1804,-0.1751,-0.1907,-0.1898,-0.1675,-0.1677,-0.1584,-0.1579,-0.1574,-0.1571,-0.1568,0,-0.1318,-0.1339,-0.1449,-0.1477,-0.1525,-0.1592,-0.1627,-0.1725,-0.1746,-0.1828,-0.1818,-0.1838,-0.1856,-0.1711,-0.1753,-0.1689,-0.1674,-0.1634,-0.1666,-0.1645,-0.1634,-0.1643,-0.1651,-0.1561,-0.156,-0.1559,-0.1557,0,-0.1245,-0.13,-0.134,-0.1399,-0.1449,-0.1493,-0.1552,-0.1556,-0.1648,-0.174,-0.1694,-0.1671,-0.1635,-0.1611,-0.1561,-0.1528,-0.1661,-0.1589,-0.1598,-0.1629,-0.1616,-0.1611,-0.1624,-0.1542,-0.1545,-0.1546,-0.1547,0,-0.1189,-0.1201,-0.1262,-0.1297,-0.1358,-0.1363,-0.1415,-0.1425,-0.1458,-0.1551,-0.1529,-0.155,-0.1606,-0.1524,-0.1486,-0.1433,-0.1421,-0.1386,-0.1406,-0.1423,-0.1398,-0.136,-0.1169,0,0,0,0,0,-0.1125,-0.1121,-0.1149,-0.118,-0.1235,-0.1264,-0.1343,-0.1396,-0.1489,-0.1409,-0.1463,-0.1419,-0.1362,-0.1381,-0.129,-0.1422,-0.1433,-0.1312,-0.1405,-0.1459,-0.1477,-0.1464,0,0,0,0,0,0,-0.1078,-0.1105,-0.1108,-0.1069,-0.1064,-0.1104,-0.1147,-0.1214,-0.1179,-0.1279,-0.1246,-0.1327,-0.1286,-0.1374,-0.1254,-0.126,-0.1289,-0.1339,-0.1335,-0.145,-0.1465,-0.1479,-0.1472,0,0,0,0,0]},{"header":{"parameterUnit":"m.s-1","parameterCategory":2,"la1":30.2991,"la2":30.254,"lo1":-89.0895,"lo2":-89.0444,"dy":0.0017,"dx":0.0017,"nx":28,"ny":28,"refTime":"2025-11-07T03:00:00:Z","depth":"4","parameterNumber":3,"parameterNumberName":"V-component_of_CURRENTS"},"data":[0,0,0,0,0,0,0,0,0,0,0,0,0,0,0,0,0,0,0,0,0,0,0,0,0,0,0,0,0,0,0,0,0,0,0,0,0,0,0,0,0,0,0,0,0,0,0,0,0,0,0,0,0,0,0,0,0,0,-0.0236,-0.0235,0,-0.0171,-0.017,-0.0169,-0.0126,-0.0125,-0.0125,-0.0125,-0.0053,-0.0052,-0.005,0,0,0,0,0,0,0,0,0,0,0,0,0,-0.0271,-0.0271,-0.0236,-0.0235,-0.0234,-0.0171,-0.017,-0.0169,-0.0126,-0.0125,-0.0125,-0.0125,-0.0054,-0.0052,-0.005,0,0,0,0,0,0,0,0,0,0,0,0,0,-0.0235,-0.0271,-0.0236,-0.0206,-0.0203,-0.0171,-0.017,-0.0169,-0.0126,-0.0125,-0.0125,-0.0125,-0.0054,-0.0052,-0.0049,-0.004,0,0,-0.0042,-0.004,0,0,0,0,0,0,0,0,-0.0237,-0.0234,-0.0211,-0.0208,-0.0204,-0.0157,-0.0156,-0.0126,-0.0126,-0.0154,-0.0125,-0.0125,-0.0088,-0.0083,-0.007,-0.0037,-0.0033,-0.0041,-0.004,-0.0039,-0.0038,0,0,0,0,0,0,0,-0.024,-0.0236,-0.0209,-0.021,-0.0206,-0.0178,-0.0173,-0.015,-0.0123,-0.0151,-0.0148,-0.0143,-0.0086,-0.0073,-0.0068,-0.0032,-0.0041,-0.0039,-0.0038,-0.0037,0.0029,0.0029,0,0,0,0,0,0,-0.0253,-0.0239,-0.0211,-0.0207,-0.0221,-0.0178,-0.0172,-0.0172,-0.0123,-0.0116,-0.0143,-0.0141,-0.0077,-0.0071,-0.0065,-0.0042,-0.0039,-0.0036,-0.0035,0.0029,0.0029,0.0029,0,0,0,0,0,0,-0.0254,-0.0251,-0.0214,-0.0222,-0.0215,-0.0178,-0.0177,-0.017,-0.016,-0.0117,-0.0109,-0.014,-0.0077,-0.0069,-0.0042,-0.0039,-0.0035,-0.0033,0.0029,0.0029,0.0029,-0.0001,0,0,0,0,0,0,-0.0256,-0.0252,-0.0259,-0.0223,-0.0215,-0.0202,-0.0178,-0.0169,-0.0157,-0.0154,-0.0112,-0.0105,-0.0076,-0.0046,-0.0039,-0.0035,-0.0031,0.0028,0.0029,0.0029,0.0,-0.0001,-0.0003,0,0,0,0,0,-0.0257,-0.0268,-0.026,-0.0257,-0.0225,-0.0203,-0.0196,-0.0167,-0.0158,-0.0156,-0.0122,-0.0106,-0.0039,-0.0043,-0.0036,-0.0031,0.0028,0.0029,0.0029,0.0001,-0.0001,-0.0003,0,0,0,0,0,0,-0.0285,-0.0263,-0.0254,-0.0257,-0.0236,-0.0196,-0.0194,-0.0174,-0.0146,-0.0145,-0.0103,-0.0093,-0.0067,-0.0047,-0.0054,-0.0011,-0.0003,-0.0001,-0.0027,-0.0028,-0.003,-0.0041,-0.0029,0,0,0,0,0,-0.0296,-0.03,-0.0271,-0.0274,-0.0267,-0.0233,-0.0222,-0.0203,-0.0173,-0.016,-0.0128,-0.0093,-0.0059,-0.0043,-0.0013,0.0007,0.0033,0.0015,0.0013,0.0012,0.0008,0.006,0.0063,0.0031,0.0031,0.0031,0,0,-0.0308,-0.0297,-0.0299,-0.0281,-0.0263,-0.0255,-0.0225,-0.0215,-0.0203,-0.0158,-0.0135,-0.0098,-0.0054,-0.0026,-0.0013,-0.001,0.0033,0.0013,0.0011,0.0008,0.006,0.0064,0.0066,0.0031,0.0031,0.0031,0,0,-0.0331,-0.0325,-0.0335,-0.0321,-0.0301,-0.0279,-0.028,-0.0244,-0.0225,-0.0201,-0.0158,-0.0119,-0.0079,-0.0035,-0.0011,-0.0004,0.0025,0.0001,-0.0015,0.0035,0.0038,0.0041,0.007,0.0076,-0.0,-0.0001,-0.0001,0,-0.0347,-0.0353,-0.0333,-0.0336,-0.0328,-0.0294,-0.0297,-0.0272,-0.023,-0.0211,-0.0202,-0.0117,-0.008,-0.0028,-0.0023,-0.0006,0.0017,-0.0013,0.0033,0.0037,0.004,0.0069,0.0076,-0.0002,-0.0002,-0.0002,-0.0001,0,-0.037,-0.0377,-0.0382,-0.0374,-0.0364,-0.0362,-0.0328,-0.0312,-0.0288,-0.0253,-0.0204,-0.0145,-0.0094,-0.0073,-0.0046,0.0001,0.0007,0.0026,0.0035,0.0042,0.0072,0.0079,-0.0004,-0.0003,-0.0003,-0.0003,0,0,-0.0398,-0.0399,-0.0401,-0.0407,-0.0385,-0.0379,-0.0364,-0.0333,-0.0319,-0.027,-0.0241,-0.0168,-0.0133,-0.0102,-0.0055,-0.001,0.0038,0.0012,0.0015,0.0036,0.0133,0.0113,0.012,0.0065,0.0066,0.0067,0.0141,0,-0.0421,-0.0443,-0.0431,-0.0445,-0.0451,-0.042,-0.0409,-0.0376,-0.0339,-0.0302,-0.023,-0.0186,-0.0144,-0.0119,-0.0065,0.0015,0.0058,0.0015,0.0127,0.013,0.0109,0.0128,0.0072,0.0146,0.0148,0.015,0.0151,0,-0.0443,-0.0456,-0.0481,-0.0483,-0.0483,-0.0486,-0.0463,-0.0446,-0.0384,-0.0354,-0.0292,-0.0235,-0.0154,-0.0126,0.001,-0.0021,0.0049,0.0109,0.0113,0.011,0.0125,0.0143,0.0165,0.0164,0.0163,0.0162,0.0161,0,-0.047,-0.0486,-0.0512,-0.0512,-0.051,-0.0515,-0.051,-0.0465,-0.0449,-0.0385,-0.0364,-0.0261,-0.0211,-0.0105,0.0018,0.0016,0.0159,0.0176,0.0223,0.0222,0.0231,0.0227,0.0268,0.0268,0.0268,0.0267,0.0267,0,-0.0492,-0.0512,-0.0533,-0.0546,-0.0575,-0.0556,-0.0568,-0.0543,-0.0503,-0.0481,-0.0396,-0.0351,-0.0202,-0.0101,0.0007,0.0135,0.0155,0.0222,0.0245,0.0215,0.0208,0.0236,0.0231,0.027,0.027,0.0269,0.0269,0,-0.0514,-0.0527,-0.0561,-0.0581,-0.0592,-0.0613,-0.0621,-0.062,-0.0579,-0.0548,-0.053,-0.0412,-0.0279,-0.0135,0.0041,0.0115,0.0242,0.0282,0.0224,0.0243,0.0272,0.0265,0.034,0.034,0.034,0.034,0.034,0,-0.0525,-0.0547,-0.0597,-0.0627,-0.0643,-0.0672,-0.0689,-0.0664,-0.0654,-0.0578,-0.0561,-0.0436,-0.0343,-0.0111,0.0033,0.0227,0.0256,0.0307,0.0303,0.0267,0.0282,0.0275,0.0268,0.034,0.034,0.034,0.034,0,-0.0545,-0.057,-0.06,-0.0668,-0.0706,-0.0736,-0.0754,-0.0752,-0.0708,-0.0677,-0.0567,-0.0438,-0.0292,-0.011,0.0035,0.0176,0.0266,0.0308,0.0309,0.0306,0.0268,0.0281,0.0274,0.034,0.034,0.034,0.034,0,-0.056,-0.0593,-0.0643,-0.0696,-0.075,-0.078,-0.0786,-0.0759,-0.0738,-0.0645,-0.061,-0.044,-0.0336,-0.0137,0.0002,0.0132,0.0166,0.0201,0.0208,0.021,0.0148,0.0079,0.0116,0,0,0,0,0,-0.0569,-0.0608,-0.0665,-0.0723,-0.0777,-0.0803,-0.0818,-0.0809,-0.0769,-0.0695,-0.0646,-0.0502,-0.0279,-0.0179,-0.005,-0.0013,0.017,0.0138,0.0209,0.034,0.034,0.0289,0,0,0,0,0,0,-0.0577,-0.0634,-0.0664,-0.073,-0.0772,-0.0821,-0.0831,-0.0804,-0.075,-0.0691,-0.0567,-0.0487,-0.0269,-0.0351,-0.0051,-0.0012,0.0046,0.0248,0.0251,0.034,0.034,0.034,0.0287,0,0,0,0,0]}]]